EA3CH Weather Reports


Display with metric or nautical units.
time (UTC)temp
F
wind
direction
speed
MPH
gust
MPH
rain 1hr
in
rain 24hr
in
rain mn
in
humidity
%
barometer
mb
20260510053005 49 0 0.0 0.0 0.00 0.40 0.00 88 1012.0
20260510050005 50 0 0.0 0.0 0.00 0.40 0.00 88 1012.0
20260510044505 49 0 0.0 0.0 0.00 0.40 0.00 88 1011.9
20260510041505 50 0 0.0 0.0 0.00 0.40 0.00 88 1012.0
20260510040005 49 0 0.0 0.0 0.00 0.40 0.00 88 1012.0
20260510034506 50 0 0.0 0.0 0.00 0.40 0.00 88 1011.9
20260510033005 50 0 0.0 0.0 0.00 0.40 0.00 88 1012.1
20260510031506 50 0 0.0 0.0 0.00 0.40 0.00 88 1012.1
20260510030005 50 0 0.0 0.0 0.00 0.40 0.00 88 1012.2
20260510024505 50 0 0.0 0.0 0.00 0.40 0.00 88 1012.4
20260510023006 50 67 0.0 1.0 0.00 0.40 0.00 88 1012.5
20260510021505 51 0 0.0 0.0 0.00 0.40 0.00 88 1012.5
20260510014505 50 0 0.0 0.0 0.00 0.40 0.00 88 1012.4
20260510013005 50 0 0.0 0.0 0.00 0.40 0.00 88 1012.3
20260510011505 51 0 0.0 0.0 0.00 0.40 0.00 88 1012.4
20260510001505 50 0 0.0 0.0 0.00 0.40 0.00 88 1012.8
20260510000005 51 0 0.0 0.0 0.00 0.40 0.00 88 1013.0
20260509234505 51 0 0.0 0.0 0.00 0.40 0.00 88 1013.1
20260509233005 51 0 0.0 0.0 0.00 0.40 0.00 87 1013.2
20260509231505 51 0 0.0 0.0 0.00 0.40 0.00 87 1013.4
20260509230006 51 73 0.0 1.0 0.00 0.40 0.00 87 1013.4
20260509224505 51 0 0.0 0.0 0.00 0.40 0.00 87 1013.4
20260509221504 51 0 0.0 0.0 0.00 0.40 0.00 87 1013.3
20260509220005 51 0 0.0 0.0 0.00 0.40 0.00 87 1013.1
20260509214505 51 0 0.0 0.0 0.00 0.40 0.40 87 1013.1
20260509213006 51 0 0.0 0.0 0.00 0.40 0.40 87 1013.2
20260509203004 51 0 0.0 0.0 0.01 0.40 0.40 87 1012.6
20260509201505 51 0 0.0 0.0 0.01 0.40 0.40 87 1012.4
20260509193005 51 0 0.0 0.0 0.00 0.39 0.39 87 1011.7
20260509183005 52 0 0.0 0.0 0.05 0.39 0.39 87 1011.0
20260509181505 52 0 0.0 0.0 0.09 0.39 0.39 87 1010.7
20260509180004 52 0 0.0 0.0 0.15 0.39 0.39 87 1010.6
20260509174505 52 0 0.0 0.0 0.19 0.36 0.36 87 1010.6
20260509173004 53 0 0.0 0.0 0.19 0.34 0.34 87 1011.1
20260509163007 53 0 0.0 0.0 0.10 0.15 0.15 87 1012.6
20260509160007 54 113 0.0 2.0 0.07 0.09 0.09 87 1012.8
20260509154507 54 0 0.0 0.0 0.06 0.06 0.06 87 1012.6
20260509150007 56 285 1.0 8.0 0.02 0.02 0.02 88 1010.6
20260509144506 56 265 1.0 3.0 0.00 0.00 0.00 88 1011.3
20260509143006 57 258 3.0 7.0 0.00 0.00 0.00 84 1012.2
20260509141506 58 265 1.0 5.0 0.00 0.00 0.00 79 1012.4
20260509133006 59 83 1.0 4.0 0.00 0.00 0.00 79 1012.6
20260509131506 59 279 1.0 5.0 0.00 0.00 0.00 78 1012.4
20260509121506 58 262 2.0 6.0 0.00 0.00 0.00 83 1013.1
20260509114506 60 270 2.0 7.0 0.00 0.00 0.00 77 1013.6
20260509113006 59 247 1.0 5.0 0.00 0.00 0.00 79 1013.8
20260509110006 60 220 1.0 4.0 0.00 0.00 0.00 81 1013.7
20260509093006 60 274 1.0 3.0 0.00 0.00 0.00 75 1013.5
20260509084506 60 284 1.0 3.0 0.00 0.00 0.00 77 1013.3
20260509081506 57 282 1.0 5.0 0.00 0.00 0.00 87 1013.0
20260509070006 53 0 0.0 0.0 0.00 0.00 0.00 87 1013.5
20260509063006 52 0 0.0 0.0 0.00 0.00 0.00 87 1013.8
20260509061506 51 0 0.0 0.0 0.00 0.00 0.00 87 1014.0
20260509060006 51 0 0.0 0.0 0.00 0.00 0.00 87 1013.7
20260509054506 51 0 0.0 0.0 0.00 0.00 0.00 88 1013.8